Tiempo cada hora Almancil

Hoy, 3 Agosto, Martes

Tiempo Temperatura Precipitaciones Viento Presión Humedad
00:00 +20°C° 0 mm 3 mps 756 mmHg 75%
01:00 +20°C° 0 mm 3 mps 756 mmHg 74%
02:00 +19°C° 0 mm 2 mps 756 mmHg 73%
03:00 +20°C° 0 mm 2 mps 756 mmHg 72%
04:00 +20°C° 0 mm 2 mps 756 mmHg 70%
05:00 +20°C° 0 mm 2 mps 756 mmHg 68%
06:00 +23°C° 0 mm 2 mps 757 mmHg 59%
07:00 +26°C° 0 mm 2 mps 757 mmHg 50%
08:00 +29°C° 0 mm 2 mps 757 mmHg 41%
09:00 +31°C° 0 mm 2 mps 757 mmHg 35%
10:00 +35°C° 0 mm 2 mps 757 mmHg 30%
11:00 +37°C° 0 mm 2 mps 757 mmHg 24%
12:00 +37°C° 0 mm 3 mps 756 mmHg 25%
13:00 +37°C° 0 mm 4 mps 756 mmHg 25%
14:00 +36°C° 0 mm 5 mps 756 mmHg 26%
15:00 +36°C° 0 mm 5 mps 756 mmHg 26%
16:00 +35°C° 0 mm 6 mps 755 mmHg 27%
17:00 +34°C° 0 mm 6 mps 755 mmHg 28%
18:00 +32°C° 0 mm 6 mps 756 mmHg 32%
19:00 +28°C° 0 mm 6 mps 756 mmHg 36%
20:00 +26°C° 0 mm 6 mps 757 mmHg 40%
21:00 +24°C° 0 mm 6 mps 757 mmHg 48%
22:00 +22°C° 0 mm 6 mps 757 mmHg 57%
23:00 +21°C° 0 mm 6 mps 757 mmHg 65%

Mañana, 4 Agosto, Miércoles

Tiempo Temperatura Precipitaciones Viento Presión Humedad
00:00 +21°C° 0 mm 7 mps 757 mmHg 71%
01:00 +20°C° 0 mm 7 mps 756 mmHg 78%
02:00 +20°C° 0 mm 7 mps 756 mmHg 84%
03:00 +20°C° 0 mm 7 mps 757 mmHg 85%
04:00 +20°C° 0 mm 6 mps 757 mmHg 86%
05:00 +20°C° 0 mm 6 mps 757 mmHg 86%
06:00 +22°C° 0 mm 6 mps 757 mmHg 75%
07:00 +24°C° 0 mm 6 mps 757 mmHg 65%
08:00 +27°C° 0 mm 6 mps 757 mmHg 54%
09:00 +30°C° 0 mm 5 mps 757 mmHg 47%
10:00 +33°C° 0 mm 5 mps 757 mmHg 41%
11:00 +35°C° 0 mm 5 mps 757 mmHg 35%
12:00 +36°C° 0 mm 5 mps 757 mmHg 32%
13:00 +38°C° 0 mm 6 mps 756 mmHg 29%
14:00 +39°C° 0 mm 7 mps 756 mmHg 26%
15:00 +38°C° 0 mm 7 mps 756 mmHg 28%
16:00 +35°C° 0 mm 7 mps 756 mmHg 30%
17:00 +34°C° 0 mm 8 mps 756 mmHg 32%
18:00 +32°C° 0 mm 8 mps 756 mmHg 38%
19:00 +29°C° 0 mm 8 mps 757 mmHg 43%
20:00 +26°C° 0 mm 8 mps 757 mmHg 49%
21:00 +24°C° 0 mm 8 mps 757 mmHg 55%
22:00 +23°C° 0 mm 8 mps 757 mmHg 61%
23:00 +21°C° 0 mm 8 mps 757 mmHg 67%

Pasado mañana, 5 Agosto, Jueves

Tiempo Temperatura Precipitaciones Viento Presión Humedad
00:00 +21°C° 0 mm 8 mps 757 mmHg 69%
01:00 +20°C° 0 mm 7 mps 757 mmHg 71%
02:00 +19°C° 0 mm 6 mps 757 mmHg 74%
03:00 +19°C° 0 mm 6 mps 757 mmHg 75%
04:00 +19°C° 0 mm 5 mps 757 mmHg 77%
05:00 +17°C° 0 mm 5 mps 757 mmHg 78%
06:00 +21°C° 0 mm 4 mps 757 mmHg 64%
07:00 +25°C° 0 mm 4 mps 757 mmHg 49%
08:00 +28°C° 0 mm 4 mps 757 mmHg 35%
09:00 +32°C° 0 mm 4 mps 757 mmHg 28%
10:00 +34°C° 0 mm 4 mps 757 mmHg 22%
11:00 +37°C° 0 mm 4 mps 757 mmHg 16%
12:00 +38°C° 0 mm 4 mps 756 mmHg 14%
13:00 +40°C° 0 mm 5 mps 756 mmHg 13%
14:00 +41°C° 0 mm 5 mps 755 mmHg 11%
15:00 +40°C° 0 mm 5 mps 755 mmHg 17%
16:00 +38°C° 0 mm 6 mps 755 mmHg 22%
17:00 +36°C° 0 mm 6 mps 754 mmHg 27%
18:00 +33°C° 0 mm 7 mps 755 mmHg 37%
19:00 +30°C° 0 mm 7 mps 755 mmHg 47%
20:00 +27°C° 0 mm 8 mps 755 mmHg 57%
21:00 +26°C° 0 mm 7 mps 755 mmHg 63%
22:00 +23°C° 0 mm 7 mps 755 mmHg 70%
23:00 +22°C° 0 mm 7 mps 755 mmHg 77%

6 Agosto, Viernes

Tiempo Temperatura Precipitaciones Viento Presión Humedad
00:00 +22°C° 0 mm 6 mps 755 mmHg 77%
01:00 +21°C° 0 mm 5 mps 755 mmHg 78%
02:00 +21°C° 0 mm 5 mps 754 mmHg 78%
03:00 +20°C° 0 mm 4 mps 755 mmHg 78%
04:00 +19°C° 0 mm 4 mps 755 mmHg 79%
05:00 +19°C° 0 mm 4 mps 755 mmHg 79%
06:00 +21°C° 0 mm 4 mps 755 mmHg 67%
07:00 +23°C° 0 mm 5 mps 755 mmHg 54%
08:00 +26°C° 0 mm 5 mps 755 mmHg 41%
09:00 +29°C° 0 mm 5 mps 755 mmHg 33%
10:00 +32°C° 0 mm 5 mps 755 mmHg 26%
11:00 +35°C° 0 mm 4 mps 755 mmHg 18%
12:00 +36°C° 0 mm 5 mps 754 mmHg 17%
13:00 +38°C° 0 mm 6 mps 754 mmHg 16%
14:00 +38°C° 0 mm 7 mps 753 mmHg 15%
15:00 +35°C° 0 mm 7 mps 753 mmHg 21%
16:00 +33°C° 0 mm 8 mps 753 mmHg 26%
17:00 +31°C° 0 mm 8 mps 753 mmHg 32%
18:00 +27°C° 0 mm 8 mps 754 mmHg 42%
19:00 +23°C° 0 mm 7 mps 754 mmHg 53%
20:00 +20°C° 0 mm 7 mps 754 mmHg 63%
21:00 +20°C° 0 mm 7 mps 754 mmHg 64%
22:00 +20°C° 0 mm 7 mps 755 mmHg 64%
23:00 +19°C° 0 mm 6 mps 755 mmHg 65%

7 Agosto, Sábado

Tiempo Temperatura Precipitaciones Viento Presión Humedad
00:00 +19°C° 0 mm 6 mps 755 mmHg 67%
01:00 +19°C° 0 mm 6 mps 755 mmHg 68%
02:00 +19°C° 0 mm 5 mps 755 mmHg 70%
03:00 +19°C° 0 mm 5 mps 755 mmHg 72%
04:00 +17°C° 0 mm 5 mps 755 mmHg 74%
05:00 +17°C° 0 mm 5 mps 755 mmHg 76%
06:00 +20°C° 0 mm 5 mps 755 mmHg 66%
07:00 +22°C° 0 mm 5 mps 756 mmHg 56%
08:00 +25°C° 0 mm 5 mps 756 mmHg 46%
09:00 +27°C° 0 mm 5 mps 756 mmHg 40%
10:00 +30°C° 0 mm 5 mps 755 mmHg 34%
11:00 +33°C° 0 mm 5 mps 755 mmHg 28%
12:00 +33°C° 0 mm 6 mps 755 mmHg 27%
13:00 +34°C° 0 mm 6 mps 755 mmHg 25%
14:00 +35°C° 0 mm 7 mps 754 mmHg 23%
15:00 +34°C° 0 mm 7 mps 754 mmHg 27%
16:00 +32°C° 0 mm 7 mps 754 mmHg 30%
17:00 +31°C° 0 mm 8 mps 754 mmHg 34%
18:00 +27°C° 0 mm 7 mps 755 mmHg 42%
19:00 +24°C° 0 mm 7 mps 755 mmHg 50%
20:00 +21°C° 0 mm 7 mps 756 mmHg 58%
21:00 +21°C° 0 mm 7 mps 756 mmHg 60%
22:00 +20°C° 0 mm 7 mps 756 mmHg 62%
23:00 +19°C° 0 mm 6 mps 756 mmHg 64%

8 Agosto, Domingo

Tiempo Temperatura Precipitaciones Viento Presión Humedad
00:00 +17°C° 0 mm 6 mps 756 mmHg 68%
01:00 +16°C° 0 mm 6 mps 756 mmHg 72%
02:00 +16°C° 0 mm 5 mps 756 mmHg 77%
03:00 +15°C° 0 mm 5 mps 756 mmHg 79%
04:00 +15°C° 0 mm 5 mps 756 mmHg 81%
05:00 +15°C° 0 mm 5 mps 756 mmHg 83%
06:00 +18°C° 0 mm 4 mps 756 mmHg 69%
07:00 +21°C° 0 mm 4 mps 756 mmHg 56%
08:00 +25°C° 0 mm 4 mps 756 mmHg 42%
09:00 +28°C° 0 mm 4 mps 756 mmHg 34%
10:00 +32°C° 0 mm 4 mps 756 mmHg 26%
11:00 +34°C° 0 mm 4 mps 756 mmHg 18%
12:00 +36°C° 0 mm 4 mps 756 mmHg 16%
13:00 +37°C° 0 mm 5 mps 755 mmHg 14%
14:00 +39°C° 0 mm 5 mps 755 mmHg 13%
15:00 +37°C° 0 mm 5 mps 755 mmHg 16%
16:00 +35°C° 0 mm 6 mps 754 mmHg 20%
17:00 +34°C° 0 mm 6 mps 754 mmHg 24%
18:00 +30°C° 0 mm 5 mps 755 mmHg 35%
19:00 +26°C° 0 mm 5 mps 755 mmHg 45%
20:00 +22°C° 0 mm 5 mps 756 mmHg 56%
21:00 +21°C° 0 mm 4 mps 756 mmHg 58%
22:00 +20°C° 0 mm 4 mps 756 mmHg 60%
23:00 +19°C° 0 mm 3 mps 757 mmHg 63%
Mostrar más

Necesitamos Su Consentimiento

Meteoprog y nuestros Proveedores de Servicios pueden almacenar y acceder a sus datos personales como cookies, identificadores de dispositivo u otras tecnologías similares de su dispositivo y procesar dichos datos para personalizar contenido y anuncios, además de ofrecer funciones de redes sociales y analizar el tráfico.

  • Almacenar y/o acceder a información en su dispositivo

    Se puede almacenar o acceder a cookies, identificadores de dispositivo u otra información de su dispositivo para los fines anteriormente indicados.

  • Anuncios y contenido personalizados, medición de anuncios y contenido, percepciones del público, y desarrollo de productos

    Los anuncios y el contenido pueden personalizarse en base a su perfil. Se pueden añadir más datos para personalizar mejor los anuncios y contenidos. Se puede medir el rendimiento de los anuncios y contenidos. Se puede obtener la percepción sobre el público que ha visto los anuncios y contenidos. Dichos datos pueden usarse para desarrollar o mejorar la experiencia del usuario, sistemas y software.

Al hacer clic en ‘Estoy De Acuerdo’ usted permitirá el uso de las cookies, identificadores de dispositivo, balizas web u otras tecnologías similares indicadas. Su configuración puede cambiarse desde el navegador de su dispositivo.

Para ciertos fines, los intereses legítimos pueden ser considerados por encima del consentimiento. Puede leer más sobre ello en nuestra Política de Privacidad y Cookies.